Home > Weather > Augsburg > Past weeks

Flag for Germany Weather for the Past 2 Weeks in Augsburg, Bavaria, Germany

Now
50 °F

Sunny.


Feels Like: 50 °F
Forecast: 43 / 53 °F
Wind: 2 mph from North

Location: Augsburg Airport

Current Time: Apr 30, 2016 at 11:02:18 AM

Latest Report: Apr 30, 2016 at 9:50 AM


Visibility: 10 mi

Pressure: 30.04 "Hg

Humidity: 54%

Dew Point: 34 °F

Location of AugsburgLocation

Historic Weather in Augsburg — Graph

°F

Augsburg Temperature Yesterday

Maximum temperature yesterday: 61 °F (at 5:50 PM)
Minimum temperature yesterday: 28 °F (at 6:50 AM)
Average temperature yesterday: 51 °F

High & Low Weather Summary for the Past Weeks

 TemperatureHumidityPressure
High66 °F (Apr 21, 4:20 PM)100% (Apr 15, 11:20 AM)30.39 "Hg (Apr 15, 11:20 AM)
Low28 °F (Apr 29, 6:50 AM)26% (Apr 21, 5:50 PM)29.59 "Hg (Apr 26, 7:50 AM)
Average48 °F65%29.95 "Hg
* Reported Apr 15 9:20 AM — Apr 30 9:50 AM, Augsburg, Weather by CustomWeather, © 2016

Note: Actual official high and low records may vary slightly from our data, if they occured in-between our weather recording intervals... More about our weather records

Advertising

Augsburg Weather History for the Previous 24 Hours

Scroll right to see more
 ConditionsComfort  
Time TempWeatherWind HumidityBarometerVisibility
9:50 AM
Sat, Apr 30
50 °FSunny.2 mph54%30.04 "Hg10 mi
9:20 AM46 °FSunny.2 mph62%30.04 "Hg10 mi
8:50 AM46 °FSunny.2 mph66%30.04 "Hg10 mi
8:20 AM45 °FSunny.1 mph66%30.04 "Hg10 mi
7:50 AM41 °FPassing clouds.3 mph76%30.04 "HgN/A
7:20 AM37 °FSunny.2 mph81%30.01 "Hg10 mi
6:50 AM34 °FClear.3 mph87%30.01 "Hg10 mi
11:50 PM
Fri, Apr 29
45 °FPassing clouds.3 mph53%30.04 "HgN/A
11:20 PM46 °FClear.6 mph53%30.04 "Hg10 mi
10:50 PM46 °FClear.6 mph53%30.04 "Hg10 mi
10:20 PM45 °FClear.8 mph57%30.04 "Hg10 mi
9:50 PM46 °FClear.7 mph57%30.04 "Hg10 mi
9:20 PM46 °FSunny.6 mph57%30.01 "Hg10 mi
8:50 PM48 °FSunny.6 mph54%30.01 "Hg10 mi
8:20 PM52 °FSunny.5 mph47%30.01 "Hg10 mi
7:50 PM57 °FSunny.5 mph36%30.01 "Hg10 mi
7:20 PM59 °FPassing clouds.5 mph31%30.01 "HgN/A
6:50 PM61 °FSunny.2 mph31%30.01 "Hg10 mi
6:20 PM61 °FSunny.3 mph29%30.01 "Hg10 mi
5:50 PM61 °FPassing clouds.5 mph27%30.01 "HgN/A
5:20 PM59 °FPassing clouds.6 mph29%30.01 "HgN/A
4:50 PM57 °FSunny.3 mph31%30.04 "Hg10 mi
4:20 PM57 °FPassing clouds.7 mph29%30.04 "HgN/A
3:50 PM59 °FSunny.5 mph31%30.04 "Hg10 mi
3:20 PM57 °FPassing clouds.7 mph29%30.04 "HgN/A
2:50 PM57 °FSunny.5 mph31%30.04 "Hg10 mi
2:20 PM57 °FPassing clouds.5 mph31%30.04 "HgN/A
1:50 PM55 °FSunny.3 mph31%30.04 "Hg10 mi
1:20 PM54 °FSunny.3 mph30%30.07 "Hg10 mi
12:50 PM54 °FSunny.2 mph41%30.07 "Hg10 mi
12:20 PM54 °FSunny.3 mph33%30.07 "Hg10 mi
11:50 AM54 °FSunny.5 mph38%30.07 "Hg10 mi
11:20 AM52 °FPassing clouds.6 mph50%30.07 "HgN/A
Weather by CustomWeather, © 2016

See weather overviewHow to use our weather pages